Back to catalog

STARLINK-36421

AliveCommunicationsVLEO
NORAD 67464·PAYLOAD·🇺🇸 United States

Launched Jan 14, 2026 from Cape Canaveral Space Force Station

Loading…

Next Passes (next 24 hours)

TLE

FreshSource: CelesTrak SupGP

Epoch: Sep 14, 2026, 23:15 UTC

1 67464C 26008V   26257.96923611 -.00006381  00000+0 -23109-3 0  2576
2 67464  42.9995 215.9419 0001349 262.4828 107.4699 15.27584266    10

Track STARLINK-36421 in real time with AllMySat

Download on the App Store